278P/McNaught (2020)

Japanese version
Home page
Updated on August 15, 2020

---------------------------------------------------------------------

* Profile

* Pictures

* Orbital Elements

Epoch 2020 Sept. 28.0 TT = JDT 2459120.5
T 2020 Sept. 12.06342 TT                                Rudenko
q   2.0870291            (2000.0)            P               Q
n   0.13883587     Peri.  238.08670     -0.28498349     +0.95803080
a   3.6937564      Node    15.44730     -0.83544418     -0.23239969
e   0.4349846      Incl.    6.68502     -0.46991216     -0.16783137
P   7.10
From 469 observations 2006 May 22-2020 July 31, mean residual 0".6.

* Magnitudes Graph

        m1 = 6.0 + 5 log d + 30.0 log r

---------------------------------------------------------------------

The orbital elements are published on M.P.E.C. 2020-P19.
The magnitudes graphs are made with Comet for Windows.

---------------------------------------------------------------------

Copyright(C) Seiichi Yoshida (comet@aerith.net). All rights reserved.